View from above orbital plane
|
View from above satellite
|
Ground track
|
The orbit data is extracted from the following two-line orbital elements,
1 39417U 13066B 22178.15503671 .00001550 00000-0 19445-3 0 9995
2 39417 97.6366 149.2136 0058272 14.5175 345.7696 14.82376828464560
Epoch (UTC): | 27 June 2022 03:43:15 |
Eccentricity: | 0.0058272 |
inclination: | 97.6366° |
perigee height: | 581 km |
apogee height: | 662 km |
right ascension of ascending node: | 149.2136° |
argument of perigee: | 14.5175° |
revolutions per day: | 14.82376828 |
mean anomaly at epoch: | 345.7696° |
orbit number at epoch: | 46456 |
The dashed part of the orbit path shows where the satellite is in the earth's shadow,
|
|